[[{"header":{"parameterUnit":"m.s-1","parameterCategory":1,"la1":30.2991,"la2":30.254,"lo1":-89.0895,"lo2":-89.0444,"dy":0.0017,"dx":0.0017,"nx":28,"ny":28,"refTime":"2025-07-08T03:00:00:Z","depth":0,"parameterNumber":2,"parameterNumberName":"U-component_of_WINDS"},"data":[0,0,0,0,0,0,0,0,0,0,0,0,0,0,0,0,0,0,0,0,0,0,0,0,0,0,0,0,0,0,0,0,0,0,0,0,0,0,0,0,0,0,0,0,0,0,0,0,0,0,0,0,0,0,0,0,0,0,2.5527,2.5527,0,2.559,2.559,2.5591,2.5582,2.5581,2.558,2.5579,2.5649,2.5652,2.5654,0,0,0,0,0,0,0,0,0,0,0,0,0,2.5404,2.5407,2.5527,2.5527,2.5528,2.559,2.559,2.5591,2.5582,2.5581,2.558,2.5579,2.5648,2.5651,2.5655,0,0,0,0,0,0,0,0,0,0,0,0,0,2.5461,2.5407,2.5526,2.5531,2.5532,2.5589,2.559,2.5592,2.5583,2.5581,2.558,2.5578,2.5647,2.5651,2.5655,2.5713,0,0,2.5668,2.567,0,0,0,0,0,0,0,0,2.5458,2.5466,2.553,2.5531,2.5532,2.5576,2.5573,2.5633,2.5583,2.5564,2.5579,2.5577,2.5626,2.5632,2.5648,2.5717,2.572,2.5669,2.5671,2.5673,2.5674,0,0,0,0,0,0,0,2.5454,2.5463,2.5552,2.553,2.5532,2.5532,2.5538,2.5584,2.5603,2.5565,2.5565,2.5572,2.5627,2.5644,2.5649,2.5721,2.5668,2.5672,2.5675,2.5677,2.5844,2.5845,0,0,0,0,0,0,2.5448,2.546,2.555,2.5554,2.549,2.5535,2.5542,2.5564,2.5603,2.5607,2.5573,2.5571,2.5637,2.5644,2.5652,2.5724,2.5673,2.5677,2.5679,2.5842,2.5844,2.5846,0,0,0,0,0,0,2.5446,2.5456,2.5547,2.5507,2.5518,2.5539,2.5563,2.5566,2.5583,2.5609,2.5613,2.5587,2.5636,2.5646,2.5698,2.5727,2.5679,2.5683,2.584,2.5842,2.5845,2.5869,0,0,0,0,0,0,2.5442,2.5455,2.5476,2.5507,2.552,2.5591,2.5565,2.5568,2.5589,2.5588,2.5622,2.5627,2.5636,2.5692,2.5703,2.5732,2.5686,2.5837,2.5841,2.5844,2.5866,2.5872,2.5878,0,0,0,0,0,2.5438,2.5481,2.5477,2.5488,2.5547,2.5593,2.56,2.5608,2.5592,2.5614,2.5631,2.5626,2.5721,2.5698,2.5709,2.574,2.5835,2.584,2.5844,2.5863,2.5871,2.5877,0,0,0,0,0,0,2.5454,2.5485,2.5481,2.5535,2.5561,2.5591,2.5619,2.5616,2.5648,2.5645,2.5655,2.5663,2.5717,2.5734,2.5707,2.58,2.5777,2.5783,2.5787,2.5795,2.58,2.5796,2.569,0,0,0,0,0,2.5464,2.5497,2.5523,2.5568,2.5581,2.5598,2.5618,2.5622,2.565,2.5661,2.5682,2.5711,2.5748,2.5772,2.5807,2.5868,2.5877,2.5895,2.5901,2.5906,2.5912,2.5947,2.5956,2.586,2.586,2.586,0,0,2.5485,2.5506,2.5526,2.5572,2.5593,2.5629,2.5607,2.5646,2.5674,2.5668,2.5719,2.5735,2.5768,2.5826,2.5852,2.5841,2.594,2.5911,2.5915,2.5918,2.5953,2.5962,2.597,2.5863,2.5862,2.5862,0,0,2.5542,2.556,2.56,2.5621,2.5652,2.5663,2.5673,2.5704,2.5714,2.5765,2.5762,2.5796,2.5858,2.5883,2.5903,2.5971,2.5968,2.5982,2.6014,2.6048,2.6056,2.6063,2.6089,2.6098,2.5988,2.5988,2.5988,0,2.5564,2.5617,2.5622,2.5662,2.5683,2.5678,2.5721,2.5741,2.5783,2.5799,2.5786,2.5865,2.5887,2.5951,2.5967,2.5983,2.5997,2.5978,2.6054,2.6061,2.6067,2.6092,2.6102,2.599,2.5989,2.5989,2.5989,0,2.5644,2.5681,2.571,2.5749,2.5774,2.5814,2.5828,2.5853,2.5855,2.5868,2.5922,2.5948,2.5989,2.6004,2.6007,2.6069,2.6062,2.6051,2.6028,2.6078,2.6102,2.6111,2.5992,2.5991,2.5991,2.599,0,0,2.5713,2.5755,2.5766,2.5784,2.5818,2.5848,2.589,2.5929,2.5951,2.598,2.6016,2.607,2.6061,2.6084,2.609,2.612,2.6174,2.6106,2.6107,2.6119,2.6247,2.6256,2.6267,2.6172,2.6174,2.6175,2.6245,0,2.5774,2.5846,2.5853,2.5918,2.5954,2.595,2.5987,2.6013,2.6027,2.606,2.6076,2.6115,2.6098,2.6113,2.6142,2.6161,2.62,2.6156,2.6208,2.621,2.6201,2.6279,2.6288,2.6352,2.6254,2.6256,2.6257,0,2.5855,2.5886,2.5954,2.5985,2.6,2.6033,2.607,2.6101,2.6132,2.614,2.6167,2.6169,2.6214,2.6188,2.6253,2.6222,2.6244,2.6257,2.626,2.6266,2.6237,2.6289,2.6373,2.6383,2.6271,2.627,2.6269,0,2.5901,2.5959,2.6008,2.6024,2.6061,2.6084,2.6101,2.613,2.6153,2.6186,2.6202,2.6241,2.6262,2.6293,2.6306,2.6286,2.6371,2.6346,2.6381,2.6381,2.64,2.6398,2.649,2.6411,2.6411,2.6411,2.6411,0,2.597,2.6012,2.603,2.606,2.6108,2.6117,2.6165,2.6181,2.6207,2.6242,2.6242,2.6275,2.629,2.6326,2.6337,2.639,2.6399,2.6408,2.6411,2.6409,2.6408,2.6425,2.6421,2.6413,2.6413,2.6412,2.6412,0,2.603,2.6042,2.6096,2.6126,2.6135,2.6169,2.6196,2.6227,2.624,2.6285,2.6296,2.6318,2.636,2.6376,2.6429,2.6436,2.6498,2.6496,2.6487,2.6488,2.6523,2.652,2.6629,2.6645,2.6554,2.6555,2.6556,0,2.6073,2.6106,2.6139,2.6162,2.6179,2.6216,2.624,2.625,2.6275,2.6313,2.634,2.6382,2.6417,2.6486,2.6507,2.6548,2.6548,2.6584,2.6555,2.6552,2.6551,2.655,2.6554,2.659,2.6591,2.6592,2.6592,0,2.615,2.6155,2.6189,2.6225,2.6253,2.6283,2.6311,2.633,2.6345,2.6374,2.6417,2.6444,2.6497,2.654,2.6582,2.6601,2.6601,2.6601,2.6612,2.6611,2.6605,2.661,2.6503,2.6599,2.6598,2.6598,2.6597,2.6597,2.6205,2.6234,2.6263,2.6301,2.6323,2.635,2.638,2.6397,2.6433,2.6476,2.648,2.6527,2.6559,2.6615,2.6636,2.6675,2.6665,2.668,2.6684,2.6688,2.6692,2.6598,2.6682,2.6682,2.6682,2.6682,2.6682,0,2.6283,2.6301,2.6336,2.6376,2.6406,2.64,2.6432,2.6459,2.6499,2.6528,2.6562,2.6612,2.6654,2.6679,2.6722,2.6748,2.6749,2.6759,2.6758,2.6763,2.6697,2.6684,2.6758,2.6758,2.6758,2.6758,2.6758,2.6758,2.6328,2.6378,2.6386,2.6448,2.6467,2.6511,2.653,2.6556,2.6579,2.6635,2.6669,2.6685,2.6713,2.6758,2.6797,2.6803,2.682,2.6831,2.6837,2.6775,2.6767,2.676,2.6748,2.6834,2.6834,2.69,2.6901,2.6901]},{"header":{"parameterUnit":"m.s-1","parameterCategory":1,"la1":30.2991,"la2":30.254,"lo1":-89.0895,"lo2":-89.0444,"dy":0.0017,"dx":0.0017,"nx":28,"ny":28,"refTime":"2025-07-08T03:00:00:Z","depth":0,"parameterNumber":3,"parameterNumberName":"V-component_of_WINDS"},"data":[0,0,0,0,0,0,0,0,0,0,0,0,0,0,0,0,0,0,0,0,0,0,0,0,0,0,0,0,0,0,0,0,0,0,0,0,0,0,0,0,0,0,0,0,0,0,0,0,0,0,0,0,0,0,0,0,0,0,1.4841,1.4842,0,1.4896,1.4897,1.4898,1.4919,1.4919,1.4919,1.4919,1.4973,1.4975,1.4976,0,0,0,0,0,0,0,0,0,0,0,0,0,1.475,1.4752,1.4841,1.4842,1.4843,1.4896,1.4897,1.4898,1.4919,1.4919,1.4919,1.4919,1.4972,1.4974,1.4976,0,0,0,0,0,0,0,0,0,0,0,0,0,1.4796,1.4752,1.4841,1.486,1.4862,1.4896,1.4897,1.4898,1.4919,1.4919,1.4919,1.4919,1.4972,1.4974,1.4976,1.4995,0,0,1.4984,1.4985,0,0,0,0,0,0,0,0,1.4793,1.4799,1.4857,1.4859,1.4861,1.4901,1.4885,1.4931,1.4919,1.4898,1.4919,1.4919,1.4949,1.4953,1.4964,1.4998,1.5,1.4984,1.4985,1.4986,1.4987,0,0,0,0,0,0,0,1.479,1.4797,1.4863,1.4857,1.486,1.4864,1.487,1.4894,1.4924,1.4899,1.4901,1.4907,1.495,1.4962,1.4965,1.5001,1.4984,1.4986,1.4987,1.4988,1.5049,1.5049,0,0,0,0,0,0,1.4784,1.4794,1.4861,1.4865,1.4826,1.4866,1.4873,1.4888,1.4924,1.4929,1.4908,1.4908,1.4958,1.4963,1.4967,1.4989,1.4986,1.4989,1.499,1.5048,1.5049,1.5049,0,0,0,0,0,0,1.4782,1.479,1.4859,1.483,1.4839,1.4868,1.4885,1.489,1.4901,1.493,1.4935,1.4914,1.4958,1.4964,1.4987,1.4992,1.499,1.4992,1.5048,1.5049,1.5049,1.5035,0,0,0,0,0,0,1.4779,1.4789,1.4798,1.483,1.484,1.488,1.4885,1.4891,1.4905,1.4907,1.4937,1.4942,1.4958,1.4984,1.499,1.4995,1.4994,1.5048,1.5048,1.5049,1.5035,1.5035,1.5034,0,0,0,0,0,1.4776,1.4792,1.4799,1.4807,1.4852,1.488,1.4886,1.4905,1.4906,1.4914,1.4931,1.4941,1.499,1.4986,1.4993,1.4999,1.5048,1.5048,1.5049,1.5035,1.5035,1.5034,0,0,0,0,0,0,1.4761,1.4797,1.4804,1.4832,1.4853,1.4884,1.4895,1.4904,1.4925,1.4926,1.4947,1.4954,1.4975,1.4989,1.4984,1.5017,1.5019,1.5021,1.5007,1.5006,1.5006,1.5002,1.4996,0,0,0,0,0,1.4761,1.4781,1.4811,1.4832,1.4842,1.4867,1.488,1.4892,1.4914,1.4923,1.4943,1.4963,1.4983,1.4995,1.5015,1.5037,1.5042,1.5044,1.5043,1.5043,1.5044,1.5053,1.5054,1.505,1.505,1.505,0,0,1.4761,1.4783,1.4795,1.483,1.4848,1.4866,1.4874,1.4895,1.4908,1.4926,1.4949,1.4964,1.4987,1.5009,1.502,1.5022,1.5046,1.5043,1.5043,1.5044,1.5054,1.5054,1.5054,1.5051,1.5051,1.505,0,0,1.477,1.479,1.4808,1.4825,1.4851,1.4866,1.487,1.4899,1.491,1.4933,1.4945,1.4961,1.4995,1.5011,1.5023,1.5033,1.5042,1.5039,1.5037,1.5046,1.5046,1.5046,1.5048,1.5048,1.504,1.504,1.504,0,1.4766,1.4797,1.4816,1.4835,1.4849,1.4865,1.4882,1.4897,1.4928,1.4936,1.4938,1.4979,1.4996,1.502,1.5022,1.5033,1.5036,1.5036,1.5044,1.5045,1.5045,1.5047,1.5048,1.504,1.504,1.504,1.504,0,1.4789,1.481,1.4821,1.485,1.4865,1.4883,1.4903,1.4915,1.4925,1.4939,1.4961,1.4982,1.5004,1.5011,1.5022,1.5035,1.5035,1.5041,1.5044,1.5045,1.5047,1.5048,1.5039,1.5039,1.5039,1.5039,0,0,1.4793,1.483,1.4834,1.4845,1.4873,1.4889,1.4906,1.4928,1.4937,1.4957,1.497,1.4997,1.5001,1.5015,1.5026,1.5034,1.5037,1.5038,1.5039,1.5036,1.5051,1.5046,1.5047,1.5043,1.5043,1.5043,1.5048,0,1.4805,1.4837,1.4853,1.4878,1.4895,1.4908,1.4922,1.494,1.4953,1.4968,1.4982,1.4999,1.5004,1.5012,1.502,1.5035,1.5041,1.5035,1.5054,1.5054,1.5047,1.5048,1.5044,1.5048,1.5049,1.505,1.505,0,1.4824,1.4843,1.4869,1.4891,1.4899,1.4912,1.4931,1.4946,1.4965,1.4974,1.4987,1.4998,1.5014,1.5015,1.5036,1.5032,1.504,1.5048,1.5048,1.5051,1.5052,1.5049,1.505,1.505,1.5051,1.5051,1.5051,0,1.4821,1.4853,1.4872,1.4882,1.4909,1.4917,1.4929,1.4948,1.4959,1.4975,1.4982,1.5,1.501,1.5023,1.5037,1.5037,1.5056,1.5059,1.5062,1.5061,1.5065,1.5065,1.5066,1.5072,1.5072,1.5072,1.5072,0,1.4833,1.4847,1.487,1.4882,1.4898,1.4914,1.4929,1.4942,1.4957,1.497,1.4983,1.4994,1.5013,1.5025,1.5037,1.505,1.5055,1.5061,1.5064,1.506,1.5059,1.5065,1.5065,1.5072,1.5072,1.5072,1.5072,0,1.4833,1.4849,1.487,1.4893,1.4899,1.491,1.4929,1.4939,1.4951,1.4967,1.4971,1.499,1.5006,1.5021,1.5042,1.505,1.5063,1.5067,1.5057,1.5058,1.5059,1.5058,1.5065,1.5065,1.5071,1.5071,1.5071,0,1.4839,1.485,1.4874,1.4883,1.4894,1.4909,1.492,1.4935,1.4946,1.4966,1.4973,1.499,1.5004,1.5027,1.5042,1.5057,1.5061,1.5062,1.5064,1.5058,1.5059,1.5058,1.5058,1.5061,1.5061,1.5061,1.5061,0,1.4846,1.4853,1.4868,1.4885,1.4898,1.4912,1.4927,1.4933,1.4951,1.4962,1.4977,1.4988,1.5008,1.5023,1.504,1.505,1.5058,1.506,1.5061,1.5057,1.505,1.5052,1.5054,1.506,1.506,1.506,1.5061,1.5061,1.4849,1.4858,1.4875,1.4891,1.4903,1.4915,1.4925,1.4938,1.4952,1.4969,1.4977,1.4992,1.5007,1.503,1.504,1.5051,1.5053,1.5055,1.5056,1.5056,1.5054,1.5048,1.5054,1.5054,1.5054,1.5054,1.5054,0,1.4855,1.4866,1.488,1.49,1.4911,1.4917,1.4932,1.4941,1.4954,1.4968,1.4981,1.4997,1.5011,1.5026,1.504,1.5045,1.5049,1.5049,1.5048,1.505,1.5052,1.5049,1.5045,1.5045,1.5045,1.5045,1.5045,1.5045,1.486,1.4876,1.4884,1.4904,1.4915,1.4929,1.4937,1.4948,1.4958,1.4976,1.4987,1.4997,1.501,1.5025,1.5037,1.5041,1.5045,1.5043,1.5048,1.5049,1.505,1.5051,1.5048,1.5044,1.5044,1.5044,1.5044,1.5044]}]]